Find Starlink 5451

NORAD ID: 54771 Int'l Des: 2022-175 Owner: SPXS Country: US Constellation: starlink operational
LEOCIRCULAR

当前视图

正在加载3D地球...

About Starlink 5451

Starlink 5451 (NORAD 54771) is a starlink constellation satellite (v1.5) launched Dec 17, 2022 by SPXS of US. It operates in LEO, CIRCULAR orbit with a mass of 305.00 kg.

关于 Starlink 5451

正在加载描述...

即将过境

Passes for default location (London). Set your location on the main map for personalized predictions.

高度历史

Loading altitude history...

两行轨道根数

1 54771U 22175P 26171.37205049 -.00000177 00000-0 69304-5 0 9991
2 54771 53.1600 297.8450 0000800 83.7904 276.3178 15.08835110195499
Epoch: Jun 20, 2026 • Age: 11 hours

当前状态

高度 555.1 km
速度 7.58 km/s
星下点 -44.04°S, 43.78°E
发射日期 Dec 17, 2022
运行时间 3.5 years
类型 internet

技术详情

分类 Payload
质量 305.00 kg
干质量 290.00 kg
总质量 305.00 kg
长度 0.20 m
直径 2.80 m
跨度 9.00 m
形状 Box + pan
制造商 SPXS
平台类型 Starlink
阶段状态 In Orbit
所有者/国家 SPXS/US

Most Searched